Regional Weather Roundup
Issued by NWS

Home | Current Version | Previous Version | Graphics & Text | Print | Product List | Glossary On
Versions: 1 2 3 4 5 6 7 8 9 10 11 12 13 14 15 16 17 18 19 20 21 22 23 24 25 26 27 28 29 30 31 32 33 34 35 36 37 38 39 40 41 42 43 44 45 46 47 48 49 50
225
ASUS43 KOAX 201402
RWRNE

WEATHER ROUNDUP FOR NEBRASKA
NATIONAL WEATHER SERVICE OMAHA NE
900 AM CDT FRI APR 20 2018

NOTES: SATELLITE DATA IS BEING USED TO AUGMENT CLOUD COVER ABOVE
       12000 FEET.
       "FAIR" INDICATES FEW OR NO CLOUDS BELOW 12,000 FEET WITH NO
       SIGNIFICANT WEATHER AND/OR OBSTRUCTIONS TO VISIBILITY.


NEZ001>004-019>022-054>056-201500-
NEBRASKA PANHANDLE

CITY           SKY/WX    TMP DP  RH WIND       PRES   REMARKS
SCOTTSBLUFF    CLOUDY    40  29  64 E16       30.08R WCI  31
ALLIANCE       CLOUDY    41  28  60 S25G37    30.09R
CHADRON        CLOUDY    45  29  53 S12       30.11R
GORDON         FAIR      43  29  59 SE13      30.14S
KIMBALL        CLOUDY    39  28  65 SE23      30.03R WCI  28
SIDNEY         CLOUDY    40  29  64 SE22G30   30.09R WCI  30
$$

NEZ057>060-069>072-079>082-201500-
SOUTHWEST NEBRASKA

CITY           SKY/WX    TMP DP  RH WIND       PRES   REMARKS
NORTH PLATTE   CLOUDY    44  28  53 SE15G24   30.22S
IMPERIAL       CLOUDY    43  29  57 E18       30.16F
LEXINGTON      CLOUDY    43  31  62 SE12      30.27S
MCCOOK         CLOUDY    44  29  55 SE9       30.23S
OGALLALA       CLOUDY    43  29  57 SE13G21   30.17F
$$

NEZ005>010-023>029-035>040-094-201500-
NORTH CENTRAL NEBRASKA

CITY           SKY/WX    TMP DP  RH WIND       PRES   REMARKS
VALENTINE      CLOUDY    43  31  62 SE12G17   30.25R
AINSWORTH      CLOUDY    43  31  62 S13       30.27R
BROKEN BOW     CLOUDY    42  30  62 SE10      30.27S
O`NEILL        CLOUDY    39  32  75 SE9       30.34R WCI  33
ORD            CLOUDY    39  31  72 E7        30.30S WCI  34
THEDFORD       CLOUDY    44  30  58 SE12G18   30.23F
$$

NEZ041-046>049-061>064-073>077-083>087-201500-
SOUTH CENTRAL NEBRASKA

CITY           SKY/WX    TMP DP  RH WIND       PRES   REMARKS
GRAND ISLAND   MOSUNNY   42  31  64 SE13      30.34S
AURORA         CLOUDY    42  32  69 SE12      30.35S
HASTINGS       CLOUDY    41  31  67 SE10      30.32F
HEBRON         PTSUNNY   45  32  60 SE14      30.36F
HOLDREGE       CLOUDY    44  32  63 SE17G23   30.28S
KEARNEY        CLOUDY    43  31  62 SE13      30.30F
YORK             N/A     45  32  61 SE10      30.37F
$$

NEZ011>018-030>034-042>045-201500-
NORTHEAST NEBRASKA

CITY           SKY/WX    TMP DP  RH WIND       PRES   REMARKS
NORFOLK        CLOUDY    39  32  76 SE8       30.37S WCI  33
ALBION         CLOUDY    40  32  73 SE9       30.37R WCI  35
BLAIR          MOSUNNY   43  30  61 SE8       30.42S
COLUMBUS       CLOUDY    41  33  73 E7        30.40S
FREMONT        MOSUNNY   43  31  63 SE8       30.43S
TEKAMAH        CLOUDY    39  30  70 SE10      30.44F WCI  32
WAYNE          CLOUDY    38  34  84 S8        30.41S WCI  33
$$

NEZ050>053-065>068-078-088>093-201500-
SOUTHEAST NEBRASKA

CITY           SKY/WX    TMP DP  RH WIND       PRES   REMARKS
LINCOLN        MOSUNNY   47  32  56 SE8       30.42S
OMAHA EPPLEY   PTSUNNY   44  29  55 SE7       30.45R
BEATRICE       CLOUDY    47  33  58 SE10G16   30.39F
FALLS CITY     MOSUNNY   44  32  62 SE9       30.44R
NEBRASKA CITY  CLOUDY    43  32  65 SE7       30.44S
PLATTSMOUTH      N/A     43  31  63 SE8       30.44S HAZE
$$

NEZ044-045-051>053-067-201500-
OMAHA AREA

CITY           SKY/WX    TMP DP  RH WIND       PRES   REMARKS
OMAHA EPPLEY   PTSUNNY   44  29  55 SE7       30.45R
BLAIR          MOSUNNY   43  30  61 SE8       30.42S
FREMONT        MOSUNNY   43  31  63 SE8       30.43S
MILLARD        PTSUNNY   43  32  64 SE6       30.44S
OFFUTT AFB     CLOUDY    43  30  59 SE7       30.44R
PLATTSMOUTH      N/A     43  31  63 SE8       30.44S HAZE
WAHOO          FAIR      43  30  60 SE9       30.42S
$$




USA.gov is the U.S. government's official web portal to all federal, state and local government web resources and services.